Location: Twentynine Palms Airport
(34.1316°N, 115.9458°W)
Time: 15:31:57
(UTC-07:00)

Oscar 19 - Visible Passes

Search period start: 28 July 2014 00:00
Search period end: 07 August 2014 00:00
Orbit: 774 x 792 km, 98.5° (Epoch: 27 July)

Date Brightness Start Highest point End Pass type
(mag) Time Alt. Az. Time Alt. Az. Time Alt. Az.
28 Jul 11.8 02:04:50 10° NNE 02:08:14 39° NE 02:08:14 39° NE visible
28 Jul 12.6 03:45:58 10° NNW 03:48:45 15° WNW 03:48:48 15° WNW visible
29 Jul 12.7 01:33:54 10° NE 01:36:14 21° ENE 01:36:14 21° ENE visible
29 Jul 11.9 03:13:07 10° N 03:16:49 28° NW 03:16:49 28° NW visible
30 Jul 13.4 01:04:14 10° ENE 01:04:15 10° ENE 01:04:15 10° ENE visible
30 Jul 11.4 02:41:04 10° N 02:44:49 45° NNW 02:44:49 45° NNW visible
31 Jul 11.8 02:09:31 10° NNE 02:12:49 39° NE 02:12:49 39° NE visible
31 Jul 12.7 03:51:04 10° NW 03:53:24 13° WNW 03:53:24 13° WNW visible
01 Aug 12.7 01:38:29 10° NE 01:40:50 22° ENE 01:40:50 22° ENE visible
01 Aug 12.1 03:17:57 10° NNW 03:21:24 25° NW 03:21:24 25° NW visible
02 Aug 13.3 01:08:28 10° ENE 01:08:50 11° ENE 01:08:50 11° ENE visible
02 Aug 11.6 02:45:50 10° N 02:49:24 40° NNW 02:49:24 40° NNW visible
03 Aug 11.9 02:14:12 10° NNE 02:17:24 38° NNE 02:17:24 38° NNE visible
03 Aug 12.8 03:56:17 10° NW 03:57:58 12° WNW 03:57:58 12° WNW visible
04 Aug 12.6 01:43:04 10° NNE 01:45:24 23° NE 01:45:24 23° NE visible
04 Aug 12.2 03:22:49 10° NNW 03:25:58 23° NW 03:25:58 23° NW visible
05 Aug 13.3 01:12:48 10° NE 01:13:24 12° ENE 01:13:24 12° ENE visible
05 Aug 11.8 02:50:35 10° N 02:53:58 36° NNW 02:53:58 36° NNW visible
06 Aug 12.0 02:18:54 10° NNE 02:21:58 37° NNE 02:21:58 37° NNE visible
06 Aug 12.9 04:01:51 10° NW 04:02:32 10° WNW 04:02:32 10° WNW visible
